Location: Camp Creek
(33.9000°N, 111.8167°W)
Time: 10:32:03
(UTC-07:00)

Cosmos 1656 - Visible Passes

Search period start: 25 July 2014 00:00
Search period end: 04 August 2014 00:00
Orbit: 797 x 851 km, 71.1° (Epoch: 24 July)

Date Brightness Start Highest point End Pass type
(mag) Time Alt. Az. Time Alt. Az. Time Alt. Az.
25 Jul 4.1 20:10:06 10° NNW 20:15:41 65° WSW 20:21:09 10° S visible
28 Jul 6.5 20:56:24 10° W 20:57:37 11° W 20:58:49 10° WSW visible
29 Jul 6.4 20:34:53 10° WNW 20:37:25 13° W 20:39:56 10° SW visible
30 Jul 6.3 20:13:54 10° WNW 20:17:12 16° W 20:20:29 10° SW visible
31 Jul 6.2 19:53:07 10° NW 19:56:59 19° W 20:00:48 10° SW visible
